User: anonymous   Login
Location: Falniów
(50.3639°N, 19.9642°E)
Time: 06:02:37
(UTC+00:00)
Language:

Cosmos 468 Rocket - Orbit

View from above orbital plane
View from above orbital plane
View from above satellite
View from above satellite

Ground track
Ground track

The orbit is defined by the following mean orbital elements,

1 05707U          26065.64639588 +.00000000 +00000-0 +12428-3 0 00000
2 05707  74.0284 326.5877 0024329 335.0588  24.9390 14.40452142    00
Epoch (UTC): 06 March 2026 15:30:48
Eccentricity: 0.0024329
inclination: 74.0284°
perigee height: 740 km
apogee height: 774 km
right ascension of ascending node: 326.5877°
argument of perigee: 335.0588°
revolutions per day: 14.40452142
mean anomaly at epoch: 24.9390°

The dashed part of the orbit path shows where the satellite is in the earth's shadow,  

DLR